When you browse on this site, cookies collect data to enhance your experience and personalize the content and advertising you see.
Visit our Privacy Policy to learn more. By continuing to use the site, you agree to this use of cookies and data.
  • In Hungary
  • List of Countries
  • For 7 days
  • Water Temperature
  • Weather Map
  • News
  • Weather Widgets
  • user-avatar
    Login

    Hourly Weather Sagada

    Today, 22 October, Tuesday

    Time Temperature Precipitation Wind Pressure Humidity
    00:00 +10°C° 0 mm 1 mps 638 mmHg 92%
    01:00 +10°C° 0 mm 1 mps 638 mmHg 91%
    02:00 +9°C° 0 mm 1 mps 638 mmHg 90%
    03:00 +9°C° 0 mm 1 mps 638 mmHg 90%
    04:00 +9°C° 0 mm 1 mps 637 mmHg 88%
    05:00 +8°C° 0 mm 1 mps 637 mmHg 87%
    06:00 +8°C° 0 mm 1 mps 637 mmHg 86%
    07:00 +9°C° 0 mm 0 mps 638 mmHg 75%
    08:00 +11°C° 0 mm 0 mps 639 mmHg 65%
    09:00 +13°C° 0 mm 0 mps 640 mmHg 54%
    10:00 +15°C° 0 mm 1 mps 640 mmHg 51%
    11:00 +16°C° 0 mm 1 mps 640 mmHg 49%
    12:00 +18°C° 0 mm 1 mps 640 mmHg 46%
    13:00 +16°C° 0 mm 1 mps 640 mmHg 50%
    14:00 +16°C° 0 mm 2 mps 639 mmHg 53%
    15:00 +16°C° 0 mm 2 mps 639 mmHg 57%
    16:00 +14°C° 0 mm 1 mps 639 mmHg 69%
    17:00 +12°C° 0 mm 1 mps 638 mmHg 80%
    18:00 +9°C° 0 mm 0 mps 638 mmHg 91%
    19:00 +9°C° 0 mm 0 mps 638 mmHg 90%
    20:00 +8°C° 0 mm 0 mps 638 mmHg 90%
    21:00 +8°C° 0 mm 0 mps 637 mmHg 89%
    22:00 +7°C° 0 mm 0 mps 637 mmHg 85%
    23:00 +7°C° 0 mm 0 mps 637 mmHg 81%

    Tomorrow, 23 October, Wednesday

    Time Temperature Precipitation Wind Pressure Humidity
    00:00 +8°C° 0 mm 1 mps 637 mmHg 77%
    01:00 +8°C° 0 mm 1 mps 637 mmHg 79%
    02:00 +8°C° 0 mm 1 mps 637 mmHg 80%
    03:00 +7°C° 0 mm 1 mps 636 mmHg 82%
    04:00 +7°C° 0 mm 1 mps 636 mmHg 77%
    05:00 +7°C° 0 mm 1 mps 636 mmHg 73%
    06:00 +7°C° 0 mm 1 mps 636 mmHg 69%
    07:00 +9°C° 0 mm 1 mps 637 mmHg 58%
    08:00 +11°C° 0 mm 1 mps 638 mmHg 47%
    09:00 +14°C° 0 mm 1 mps 639 mmHg 36%
    10:00 +14°C° 0 mm 1 mps 639 mmHg 36%
    11:00 +15°C° 0 mm 1 mps 639 mmHg 36%
    12:00 +16°C° 0 mm 1 mps 639 mmHg 36%
    13:00 +15°C° 0 mm 1 mps 639 mmHg 41%
    14:00 +15°C° 0 mm 1 mps 638 mmHg 47%
    15:00 +14°C° 0 mm 1 mps 638 mmHg 52%
    16:00 +13°C° 0 mm 1 mps 638 mmHg 61%
    17:00 +10°C° 0 mm 0 mps 637 mmHg 69%
    18:00 +9°C° 0 mm 0 mps 637 mmHg 78%
    19:00 +8°C° 0 mm 0 mps 637 mmHg 80%
    20:00 +8°C° 0 mm 0 mps 637 mmHg 82%
    21:00 +7°C° 0 mm 0 mps 637 mmHg 83%
    22:00 +8°C° 0 mm 1 mps 637 mmHg 86%
    23:00 +8°C° 0 mm 1 mps 637 mmHg 88%

    Day after tomorrow, 24 October, Thursday

    Time Temperature Precipitation Wind Pressure Humidity
    00:00 +8°C° 0 mm 1 mps 637 mmHg 90%
    01:00 +8°C° 0 mm 1 mps 637 mmHg 90%
    02:00 +8°C° 0 mm 1 mps 637 mmHg 89%
    03:00 +8°C° 0 mm 1 mps 637 mmHg 89%
    04:00 +8°C° 0 mm 1 mps 637 mmHg 89%
    05:00 +7°C° 0 mm 1 mps 636 mmHg 88%
    06:00 +7°C° 0 mm 1 mps 636 mmHg 88%
    07:00 +9°C° 0 mm 1 mps 637 mmHg 77%
    08:00 +11°C° 0 mm 1 mps 638 mmHg 67%
    09:00 +13°C° 0 mm 1 mps 638 mmHg 56%
    10:00 +13°C° 0 mm 1 mps 638 mmHg 53%
    11:00 +14°C° 0 mm 1 mps 638 mmHg 50%
    12:00 +15°C° 0 mm 1 mps 639 mmHg 48%
    13:00 +15°C° 0 mm 1 mps 638 mmHg 50%
    14:00 +15°C° 0 mm 1 mps 638 mmHg 53%
    15:00 +15°C° 0 mm 1 mps 638 mmHg 56%
    16:00 +13°C° 0 mm 1 mps 637 mmHg 66%
    17:00 +11°C° 0 mm 1 mps 637 mmHg 75%
    18:00 +9°C° 0 mm 1 mps 636 mmHg 84%
    19:00 +9°C° 0 mm 1 mps 636 mmHg 86%
    20:00 +8°C° 0 mm 1 mps 636 mmHg 88%
    21:00 +8°C° 0 mm 1 mps 636 mmHg 90%
    22:00 +8°C° 0 mm 1 mps 636 mmHg 88%
    23:00 +7°C° 0 mm 1 mps 635 mmHg 87%

    25 October, Friday

    Time Temperature Precipitation Wind Pressure Humidity
    00:00 +7°C° 0 mm 1 mps 635 mmHg 86%
    01:00 +7°C° 0 mm 1 mps 635 mmHg 84%
    02:00 +7°C° 0 mm 1 mps 635 mmHg 83%
    03:00 +6°C° 0 mm 1 mps 635 mmHg 82%
    04:00 +6°C° 0 mm 1 mps 635 mmHg 78%
    05:00 +6°C° 0 mm 1 mps 635 mmHg 74%
    06:00 +6°C° 0 mm 1 mps 634 mmHg 70%
    07:00 +9°C° 0 mm 1 mps 635 mmHg 61%
    08:00 +11°C° 0 mm 1 mps 636 mmHg 51%
    09:00 +12°C° 0 mm 0 mps 637 mmHg 41%
    10:00 +14°C° 0 mm 1 mps 637 mmHg 39%
    11:00 +15°C° 0 mm 1 mps 638 mmHg 37%
    12:00 +16°C° 0 mm 1 mps 638 mmHg 35%
    13:00 +16°C° 0 mm 1 mps 638 mmHg 39%
    14:00 +16°C° 0 mm 1 mps 637 mmHg 43%
    15:00 +15°C° 0 mm 2 mps 637 mmHg 47%
    16:00 +13°C° 0 mm 1 mps 636 mmHg 58%
    17:00 +10°C° 0 mm 0 mps 636 mmHg 69%
    18:00 +8°C° 0 mm 0 mps 635 mmHg 80%
    19:00 +8°C° 0 mm 0 mps 635 mmHg 80%
    20:00 +8°C° 0 mm 0 mps 635 mmHg 80%
    21:00 +8°C° 0 mm 1 mps 635 mmHg 81%
    22:00 +8°C° 0 mm 1 mps 635 mmHg 82%
    23:00 +8°C° 0 mm 1 mps 635 mmHg 83%

    26 October, Saturday

    Time Temperature Precipitation Wind Pressure Humidity
    00:00 +7°C° 0 mm 1 mps 635 mmHg 85%
    01:00 +7°C° 0 mm 1 mps 635 mmHg 85%
    02:00 +7°C° 0 mm 1 mps 635 mmHg 85%
    03:00 +7°C° 0 mm 1 mps 635 mmHg 86%
    04:00 +7°C° 0 mm 1 mps 635 mmHg 85%
    05:00 +7°C° 0 mm 1 mps 635 mmHg 84%
    06:00 +6°C° 0 mm 1 mps 635 mmHg 83%
    07:00 +8°C° 0 mm 1 mps 636 mmHg 74%
    08:00 +10°C° 0 mm 1 mps 636 mmHg 65%
    09:00 +12°C° 0 mm 1 mps 637 mmHg 56%
    10:00 +13°C° 0 mm 1 mps 637 mmHg 51%
    11:00 +14°C° 0 mm 2 mps 638 mmHg 47%
    12:00 +15°C° 0 mm 2 mps 638 mmHg 43%
    13:00 +15°C° 0 mm 1 mps 637 mmHg 46%
    14:00 +15°C° 0 mm 1 mps 637 mmHg 49%
    15:00 +14°C° 0 mm 1 mps 637 mmHg 52%
    16:00 +12°C° 0 mm 1 mps 636 mmHg 64%
    17:00 +10°C° 0 mm 1 mps 635 mmHg 75%
    18:00 +8°C° 0 mm 1 mps 635 mmHg 86%
    19:00 +8°C° 0 mm 1 mps 635 mmHg 87%
    20:00 +8°C° 0 mm 1 mps 635 mmHg 88%
    21:00 +7°C° 0 mm 1 mps 635 mmHg 88%
    22:00 +7°C° 0 mm 1 mps 634 mmHg 87%
    23:00 +7°C° 0 mm 1 mps 634 mmHg 86%

    27 October, Sunday

    Time Temperature Precipitation Wind Pressure Humidity
    00:00 +7°C° 0 mm 1 mps 634 mmHg 85%
    01:00 +7°C° 0 mm 1 mps 634 mmHg 84%
    02:00 +6°C° 0 mm 1 mps 634 mmHg 83%
    03:00 +6°C° 0 mm 1 mps 633 mmHg 81%
    04:00 +6°C° 0 mm 1 mps 633 mmHg 81%
    05:00 +6°C° 0 mm 1 mps 633 mmHg 81%
    06:00 +6°C° 0 mm 1 mps 633 mmHg 81%
    07:00 +8°C° 0 mm 1 mps 634 mmHg 72%
    08:00 +10°C° 0 mm 1 mps 635 mmHg 64%
    09:00 +12°C° 0 mm 1 mps 635 mmHg 55%
    10:00 +13°C° 0 mm 1 mps 636 mmHg 52%
    11:00 +14°C° 0 mm 1 mps 636 mmHg 50%
    12:00 +15°C° 0 mm 2 mps 636 mmHg 47%
    13:00 +14°C° 0 mm 1 mps 636 mmHg 51%
    14:00 +14°C° 0 mm 1 mps 635 mmHg 54%
    15:00 +14°C° 0 mm 1 mps 635 mmHg 58%
    16:00 +12°C° 0 mm 1 mps 634 mmHg 68%
    17:00 +10°C° 0 mm 1 mps 634 mmHg 77%
    18:00 +7°C° 0 mm 0 mps 633 mmHg 87%
    19:00 +7°C° 0 mm 0 mps 633 mmHg 87%
    20:00 +6°C° 0 mm 0 mps 633 mmHg 87%
    21:00 +6°C° 0 mm 0 mps 633 mmHg 87%
    22:00 +6°C° 0 mm 0 mps 633 mmHg 87%
    23:00 +6°C° 0 mm 0 mps 633 mmHg 87%

    28 October, Monday

    Time Temperature Precipitation Wind Pressure Humidity
    00:00 +6°C° 0 mm 0 mps 633 mmHg 87%
    01:00 +6°C° 0 mm 0 mps 632 mmHg 87%
    02:00 +5°C° 0 mm 0 mps 632 mmHg 87%
    03:00 +5°C° 0 mm 0 mps 632 mmHg 87%
    04:00 +5°C° 0 mm 0 mps 632 mmHg 87%
    05:00 +5°C° 0 mm 0 mps 632 mmHg 87%
    06:00 +5°C° 0 mm 0 mps 632 mmHg 87%
    07:00 +7°C° 0 mm 0 mps 633 mmHg 79%
    08:00 +9°C° 0 mm 0 mps 634 mmHg 71%
    09:00 +10°C° 0 mm 0 mps 634 mmHg 62%
    10:00 +12°C° 0 mm 1 mps 634 mmHg 58%
    11:00 +13°C° 0 mm 1 mps 635 mmHg 54%
    12:00 +14°C° 0 mm 1 mps 635 mmHg 50%
    13:00 +14°C° 0 mm 1 mps 634 mmHg 55%
    14:00 +13°C° 0 mm 1 mps 634 mmHg 59%
    15:00 +13°C° 0 mm 1 mps 634 mmHg 64%
    16:00 +11°C° 0 mm 1 mps 633 mmHg 73%
    17:00 +10°C° 0 mm 1 mps 633 mmHg 82%
    18:00 +8°C° 0 mm 0 mps 633 mmHg 92%
    19:00 +7°C° 0 mm 0 mps 633 mmHg 92%
    20:00 +7°C° 0 mm 0 mps 633 mmHg 92%
    21:00 +7°C° 0 mm 0 mps 633 mmHg 91%
    22:00 +7°C° 0 mm 0 mps 633 mmHg 91%
    23:00 +8°C° 0 mm 1 mps 633 mmHg 91%
    Show more